Satellite-Ground Cal/Val Region Overpasses Predictions

Prediction of Satellite NPP Overpassing Cal/Val Region: PacNW

Region Location: (Latitude: 10.00, Longitude: 139.50) to (Latitude: 22.70, Longitude: 165.60).

Table of predicted overpasses for the next 14.0 days since TLE Epoch: 3/2/2018
Interval Starting Time Starting Location Ending Time Ending Location
1 03/03/2018 02:32:31 ( 10.01, 161.54) 03/03/2018 02:36:07 ( 22.69, 158.53)
2 03/03/2018 15:04:25 ( 22.65, 158.77) 03/03/2018 15:08:00 ( 10.03, 155.77)
3 03/04/2018 02:14:22 ( 13.06, 165.60) 03/04/2018 02:17:06 ( 22.69, 163.29)
4 03/04/2018 03:55:00 ( 10.01, 140.93) 03/04/2018 03:56:44 ( 16.12, 139.51)
5 03/04/2018 14:45:23 ( 22.66, 163.53) 03/04/2018 14:48:58 ( 10.04, 160.52)
6 03/05/2018 03:35:58 ( 10.01, 145.68) 03/05/2018 03:39:34 ( 22.69, 142.67)
7 03/05/2018 14:29:34 ( 11.39, 165.59) 03/05/2018 14:29:57 ( 10.04, 165.28)
8 03/05/2018 16:07:52 ( 22.66, 142.91) 03/05/2018 16:11:27 ( 10.04, 139.91)
9 03/06/2018 03:16:58 ( 10.06, 150.43) 03/06/2018 03:20:33 ( 22.68, 147.42)
10 03/06/2018 15:48:50 ( 22.66, 147.67) 03/06/2018 15:52:25 ( 10.04, 144.66)
11 03/07/2018 02:57:56 ( 10.05, 155.18) 03/07/2018 03:01:31 ( 22.67, 152.18)
12 03/07/2018 15:29:49 ( 22.67, 152.42) 03/07/2018 15:33:24 ( 10.05, 149.42)
13 03/08/2018 02:38:55 ( 10.05, 159.94) 03/08/2018 02:42:30 ( 22.67, 156.94)
14 03/08/2018 15:10:47 ( 22.68, 157.18) 03/08/2018 15:14:22 ( 10.05, 154.18)
15 03/09/2018 02:19:53 ( 10.04, 164.70) 03/09/2018 02:23:28 ( 22.66, 161.69)
16 03/09/2018 14:51:46 ( 22.68, 161.94) 03/09/2018 14:55:21 ( 10.06, 158.93)
17 03/10/2018 03:42:22 ( 10.04, 144.08) 03/10/2018 03:45:57 ( 22.66, 141.08)
18 03/10/2018 14:34:00 ( 18.23, 165.60) 03/10/2018 14:36:20 ( 10.00, 163.68)
19 03/10/2018 16:14:14 ( 22.68, 141.32) 03/10/2018 16:16:21 ( 15.23, 139.51)
20 03/11/2018 03:23:20 ( 10.04, 148.83) 03/11/2018 03:26:55 ( 22.66, 145.83)
21 03/11/2018 15:55:13 ( 22.68, 146.07) 03/11/2018 15:58:49 ( 10.01, 143.06)
22 03/12/2018 03:04:19 ( 10.03, 153.59) 03/12/2018 03:07:54 ( 22.66, 150.59)
23 03/12/2018 15:36:12 ( 22.69, 150.83) 03/12/2018 15:39:48 ( 10.01, 147.81)
24 03/13/2018 02:45:17 ( 10.03, 158.35) 03/13/2018 02:48:52 ( 22.65, 155.35)
25 03/13/2018 15:17:10 ( 22.69, 155.59) 03/13/2018 15:20:46 ( 10.01, 152.57)
26 03/14/2018 02:26:16 ( 10.03, 163.10) 03/14/2018 02:29:51 ( 22.65, 160.10)
27 03/14/2018 14:58:09 ( 22.70, 160.34) 03/14/2018 15:01:45 ( 10.02, 157.33)
28 03/15/2018 02:09:58 ( 19.66, 165.60) 03/15/2018 02:10:49 ( 22.65, 164.86)
29 03/15/2018 03:48:44 ( 10.03, 142.49) 03/15/2018 03:52:17 ( 22.53, 139.51)
30 03/15/2018 14:39:07 ( 22.70, 165.10) 03/15/2018 14:42:43 ( 10.02, 162.08)
31 03/15/2018 16:20:37 ( 22.69, 139.72) 03/15/2018 16:20:52 ( 21.82, 139.51)
32 03/16/2018 03:29:43 ( 10.03, 147.24) 03/16/2018 03:33:18 ( 22.65, 144.24)


NCC Satellite Cal/Val Overpasses Prediction Service
